,,PA_Meas_PMT16A,,PR_Meas_QMR101_102,,RH_Meas_QMH101,,SR_Meas_QMS101,,TA_Meas_QMH101,,GenWind,,GenWind,
time,status,PA,status,PR,status,RH,status,SR,status,TA,status,DirAvg,status,SpdAvg,
2014-03-22, 07:06:04,VALID,916.401,VALID,0,VALID,96.5277,VALID,55.6545,VALID,19.5873,VALID,119,VALID,1.44844,
2014-03-22, 07:07:04,VALID,916.444,VALID,0,VALID,96.5201,VALID,58.8778,VALID,19.5078,VALID,117,VALID,1.57578,
2014-03-22, 07:08:04,VALID,916.425,VALID,0,VALID,96.5582,VALID,61.134,VALID,19.5093,VALID,123,VALID,1.2707,
2014-03-22, 07:09:04,VALID,916.425,VALID,0,VALID,96.5429,VALID,62.101,VALID,19.5858,VALID,119,VALID,0.982422,
2014-03-22, 07:10:04,VALID,916.476,VALID,0,VALID,96.5506,VALID,62.6382,VALID,19.5468,VALID,134,VALID,0.940234,
2014-03-22, 07:11:04,VALID,916.496,VALID,0,VALID,96.5582,VALID,63.7126,VALID,19.5468,VALID,138,VALID,0.471094,
2014-03-22, 07:12:04,VALID,916.525,VALID,0,VALID,96.5429,VALID,65.4317,VALID,19.5483,VALID,125,VALID,0.821094,
2014-03-22, 07:13:04,VALID,916.51,VALID,0,VALID,96.5429,VALID,67.1507,VALID,19.5663,VALID,116,VALID,0.956641,
2014-03-22, 07:14:04,VALID,916.563,VALID,0,VALID,96.5277,VALID,69.0847,VALID,19.6248,VALID,116,VALID,0.280078,
2014-03-22, 07:15:04,VALID,916.512,VALID,0,VALID,96.5201,VALID,71.7707,VALID,19.6248,VALID,132,VALID,0.827734,
2014-03-22, 07:16:04,VALID,916.554,VALID,0,VALID,96.5048,VALID,74.2418,VALID,19.6833,VALID,123,VALID,0.696484,
2014-03-22, 07:17:04,VALID,916.545,VALID,0,VALID,96.5353,VALID,73.2749,VALID,19.6833,VALID,120,VALID,0.458984,
2014-03-22, 07:18:04,VALID,916.542,VALID,0,VALID,96.5048,VALID,72.093,VALID,19.6848,VALID,121,VALID,0.55,
2014-03-22, 07:19:04,VALID,916.562,VALID,0,VALID,96.5048,VALID,70.9112,VALID,19.7238,VALID,123,VALID,0.574219,
2014-03-22, 07:20:04,VALID,916.531,VALID,0,VALID,96.5201,VALID,68.3326,VALID,19.7418,VALID,136,VALID,1.06523,
2014-03-22, 07:21:04,VALID,916.573,VALID,0,VALID,96.5048,VALID,67.5805,VALID,19.7418,VALID,141,VALID,1.08711,
2014-03-22, 07:22:04,VALID,916.564,VALID,0,VALID,96.4972,VALID,68.0102,VALID,19.7613,VALID,128,VALID,0.543359,
2014-03-22, 07:23:04,VALID,916.624,VALID,0,VALID,96.5124,VALID,69.1921,VALID,19.7613,VALID,130,VALID,0.639063,
2014-03-22, 07:24:04,VALID,916.701,VALID,0,VALID,96.5124,VALID,71.5558,VALID,19.7418,VALID,118,VALID,0.786328,
2014-03-22, 07:25:04,VALID,916.734,VALID,0,VALID,96.4972,VALID,71.3409,VALID,19.7613,VALID,123,VALID,0.665625,
2014-03-22, 07:26:04,VALID,916.756,VALID,0,VALID,96.4819,VALID,68.1177,VALID,19.8213,VALID,122,VALID,0.585156,
2014-03-22, 07:27:04,VALID,916.789,VALID,0,VALID,96.4972,VALID,66.6135,VALID,19.8198,VALID,114,VALID,0.911719,
2014-03-22, 07:28:04,VALID,916.817,VALID,0,VALID,96.4972,VALID,65.4317,VALID,19.7613,VALID,103,VALID,0.783984,
2014-03-22, 07:29:04,VALID,916.846,VALID,0,VALID,96.4819,VALID,63.3903,VALID,19.7418,VALID,116,VALID,1.04727,
2014-03-22, 07:30:04,VALID,916.875,VALID,0,VALID,96.4743,VALID,61.134,VALID,19.7808,VALID,117,VALID,0.636328,
2014-03-22, 07:31:04,VALID,916.897,VALID,0,VALID,96.4743,VALID,59.5224,VALID,19.8018,VALID,116,VALID,0.733984,
2014-03-22, 07:32:04,VALID,916.956,VALID,0,VALID,96.4819,VALID,58.1257,VALID,19.8198,VALID,111,VALID,0.519141,
2014-03-22, 07:33:04,VALID,916.968,VALID,0,VALID,96.4743,VALID,57.8033,VALID,19.8003,VALID,87,VALID,0.779688,
2014-03-22, 07:34:04,VALID,916.975,VALID,0,VALID,96.4438,VALID,58.7703,VALID,19.8393,VALID,87,VALID,0.85625,
2014-03-22, 07:35:04,VALID,916.969,VALID,0,VALID,96.4591,VALID,61.4563,VALID,19.8798,VALID,87,VALID,0.609766,
2014-03-22, 07:36:04,VALID,916.971,VALID,0,VALID,96.4515,VALID,69.9442,VALID,19.8993,VALID,87,VALID,0.743359,
2014-03-22, 07:37:04,VALID,916.999,VALID,0,VALID,96.4515,VALID,70.5888,VALID,19.8783,VALID,87,VALID,0.561328,
2014-03-22, 07:38:04,VALID,917.011,VALID,0,VALID,96.4362,VALID,74.3493,VALID,19.8978,VALID,87,VALID,0.956641,
2014-03-22, 07:39:04,VALID,916.98,VALID,0,VALID,96.4362,VALID,78.0023,VALID,19.9188,VALID,87,VALID,0.815625,
2014-03-22, 07:40:04,VALID,916.986,VALID,0,VALID,96.4286,VALID,85.738,VALID,19.8978,VALID,87,VALID,1.18945,
2014-03-22, 07:41:04,VALID,916.993,VALID,0,VALID,96.421,VALID,86.9199,VALID,19.9173,VALID,87,VALID,0.775,
2014-03-22, 07:42:04,VALID,917.021,VALID,0,VALID,96.4133,VALID,84.5562,VALID,19.9368,VALID,87,VALID,0.873828,
2014-03-22, 07:43:04,VALID,917.029,VALID,0,VALID,96.421,VALID,87.4571,VALID,19.8978,VALID,87,VALID,1.06016,
2014-03-22, 07:44:04,VALID,917.064,VALID,0,VALID,96.4133,VALID,91.0027,VALID,19.9758,VALID,87,VALID,0.488281,
2014-03-22, 07:45:04,VALID,917.072,VALID,0,VALID,96.4133,VALID,96.0524,VALID,19.9953,VALID,87,VALID,0.455859,
2014-03-22, 07:46:04,VALID,917.086,VALID,0,VALID,96.3905,VALID,101.21,VALID,20.0148,VALID,87,VALID,0.122266,
2014-03-22, 07:47:04,VALID,917.149,VALID,0,VALID,96.3829,VALID,105.83,VALID,20.0148,VALID,88,VALID,0.599219,
2014-03-22, 07:48:04,VALID,917.148,VALID,0,VALID,96.3981,VALID,107.978,VALID,19.9758,VALID,88,VALID,0.179297,
2014-03-22, 07:49:04,VALID,917.144,VALID,0,VALID,96.3829,VALID,110.45,VALID,20.0538,VALID,91,VALID,0.339844,
2014-03-22, 07:50:04,VALID,917.186,VALID,0,VALID,96.36,VALID,113.458,VALID,20.0928,VALID,91,VALID,0.0832031,
2014-03-22, 07:51:04,VALID,917.167,VALID,0,VALID,96.3676,VALID,116.789,VALID,20.1318,VALID,91,VALID,0.133594,
2014-03-22, 07:52:04,VALID,917.177,VALID,0,VALID,96.3676,VALID,120.764,VALID,20.1708,VALID,91,VALID,0.19375,
2014-03-22, 07:53:04,VALID,917.165,VALID,0,VALID,96.3524,VALID,117.326,VALID,20.2293,VALID,91,VALID,0.546094,
2014-03-22, 07:54:04,VALID,917.11,VALID,0,VALID,96.3447,VALID,117.648,VALID,20.2098,VALID,91,VALID,0.315625,
2014-03-22, 07:55:04,VALID,917.11,VALID,0,VALID,96.3295,VALID,117.97,VALID,20.2699,VALID,107,VALID,0.562891,
2014-03-22, 07:56:04,VALID,917.131,VALID,0,VALID,96.3295,VALID,118.078,VALID,20.2293,VALID,137,VALID,0.880859,
2014-03-22, 07:57:04,VALID,917.125,VALID,0,VALID,96.3142,VALID,118.4,VALID,20.2668,VALID,137,VALID,0.605859,
2014-03-22, 07:58:04,VALID,917.106,VALID,0,VALID,96.3066,VALID,119.26,VALID,20.3464,VALID,137,VALID,0.511719,
2014-03-22, 07:59:04,VALID,917.122,VALID,0,VALID,96.3066,VALID,126.351,VALID,20.3464,VALID,137,VALID,0.903516,
2014-03-22, 08:00:04,VALID,917.122,VALID,0,VALID,96.2914,VALID,128.392,VALID,20.2684,VALID,137,VALID,0.874609,
2014-03-22, 08:01:04,VALID,917.136,VALID,0,VALID,96.2609,VALID,134.409,VALID,20.2684,VALID,137,VALID,0.912891,
2014-03-22, 08:03:04,VALID,917.141,VALID,0,VALID,96.2456,VALID,140.533,VALID,20.2684,VALID,137,VALID,0.793359,
2014-03-22, 08:04:04,VALID,917.123,VALID,0,VALID,96.2304,VALID,141.607,VALID,20.2684,VALID,145,VALID,1.21836,
2014-03-22, 08:05:04,VALID,917.143,VALID,0,VALID,96.1846,VALID,147.839,VALID,20.3058,VALID,148,VALID,0.889063,
2014-03-22, 08:06:04,VALID,917.148,VALID,0,VALID,96.1846,VALID,157.509,VALID,20.2863,VALID,145,VALID,0.492578,
2014-03-22, 08:07:04,VALID,917.153,VALID,0,VALID,96.1541,VALID,175.774,VALID,20.3448,VALID,141,VALID,0.758594,
2014-03-22, 08:08:04,VALID,917.173,VALID,0,VALID,96.1618,VALID,208.328,VALID,20.4244,VALID,144,VALID,1.10391,
2014-03-22, 08:09:04,VALID,917.164,VALID,0,VALID,96.1618,VALID,244.106,VALID,20.5414,VALID,145,VALID,0.744141,
2014-03-22, 08:10:04,VALID,917.155,VALID,0,VALID,96.1236,VALID,377.978,VALID,20.5984,VALID,156,VALID,0.608203,
2014-03-22, 08:11:04,VALID,917.216,VALID,0,VALID,96.116,VALID,398.284,VALID,20.756,VALID,156,VALID,0.461719,
2014-03-22, 08:12:04,VALID,917.196,VALID,0,VALID,96.0779,VALID,413.326,VALID,20.8129,VALID,154,VALID,0.490234,
2014-03-22, 08:13:04,VALID,917.236,VALID,0,VALID,96.0703,VALID,421.169,VALID,21.0096,VALID,154,VALID,0.347266,
2014-03-22, 08:14:04,VALID,917.207,VALID,0,VALID,96.0093,VALID,416.657,VALID,21.1657,VALID,159,VALID,0.590625,
2014-03-22, 08:15:04,VALID,917.204,VALID,0,VALID,96.0017,VALID,428.69,VALID,21.1445,VALID,172,VALID,0.877734,
2014-03-22, 08:16:04,VALID,917.231,VALID,0,VALID,95.9331,VALID,344.779,VALID,21.1445,VALID,165,VALID,1.48438,
2014-03-22, 08:17:04,VALID,917.202,VALID,0,VALID,95.8111,VALID,436.533,VALID,21.164,VALID,135,VALID,1.1293,
2014-03-22, 08:18:04,VALID,917.196,VALID,0,VALID,95.7349,VALID,440.831,VALID,21.2421,VALID,145,VALID,1.20234,
2014-03-22, 08:19:04,VALID,917.204,VALID,0,VALID,95.5976,VALID,435.137,VALID,21.3201,VALID,137,VALID,1.02188,
2014-03-22, 08:20:04,VALID,917.204,VALID,0,VALID,95.4299,VALID,410.748,VALID,21.3396,VALID,158,VALID,1.75508,
2014-03-22, 08:21:04,VALID,917.206,VALID,0,VALID,95.0716,VALID,352.192,VALID,21.3185,VALID,156,VALID,1.02695,
2014-03-22, 08:22:04,VALID,917.216,VALID,0,VALID,94.7286,VALID,394.954,VALID,21.4177,VALID,151,VALID,1.55742,
2014-03-22, 08:23:04,VALID,917.187,VALID,0,VALID,94.6828,VALID,432.236,VALID,21.5331,VALID,152,VALID,0.463672,
2014-03-22, 08:24:04,VALID,917.2,VALID,0,VALID,94.5227,VALID,428.368,VALID,21.6729,VALID,133,VALID,1.25352,
2014-03-22, 08:25:04,VALID,917.189,VALID,0,VALID,93.6232,VALID,418.268,VALID,21.712,VALID,124,VALID,1.40781,
2014-03-22, 08:26:04,VALID,917.208,VALID,0,VALID,93.2344,VALID,412.359,VALID,21.8469,VALID,174,VALID,1.06016,
2014-03-22, 08:27:04,VALID,917.21,VALID,0,VALID,92.2738,VALID,383.028,VALID,21.9444,VALID,183,VALID,1.15937,
2014-03-22, 08:28:04,VALID,917.193,VALID,0,VALID,91.2066,VALID,393.772,VALID,22.003,VALID,187,VALID,1.66523,
2014-03-22, 08:29:04,VALID,917.189,VALID,0,VALID,90.2003,VALID,413.004,VALID,22.1201,VALID,157,VALID,0.620703,
2014-03-22, 08:30:04,VALID,917.191,VALID,0,VALID,88.9881,VALID,406.342,VALID,22.1981,VALID,166,VALID,1.23359,
2014-03-22, 08:31:04,VALID,917.199,VALID,0,VALID,87.0442,VALID,399.036,VALID,22.1964,VALID,170,VALID,1.20703,
2014-03-22, 08:32:04,VALID,917.199,VALID,0,VALID,87.9209,VALID,390.226,VALID,22.3347,VALID,158,VALID,1.16406,
2014-03-22, 08:33:04,VALID,917.146,VALID,0,VALID,87.6845,VALID,391.086,VALID,22.333,VALID,186,VALID,0.891016,
2014-03-22, 08:34:04,VALID,917.161,VALID,0,VALID,86.4877,VALID,384.747,VALID,22.333,VALID,148,VALID,1.29219,
2014-03-22, 08:35:04,VALID,917.135,VALID,0,VALID,85.7101,VALID,378.945,VALID,22.2745,VALID,177,VALID,1.75156,
2014-03-22, 08:36:04,VALID,917.132,VALID,0,VALID,86.3885,VALID,386.466,VALID,22.2159,VALID,151,VALID,1.15234,
2014-03-22, 08:37:04,VALID,917.1,VALID,0,VALID,86.8155,VALID,392.483,VALID,22.255,VALID,176,VALID,0.987891,
2014-03-22, 08:38:04,VALID,917.102,VALID,0,VALID,86.5029,VALID,395.276,VALID,22.294,VALID,145,VALID,1.09805,
2014-03-22, 08:39:04,VALID,917.066,VALID,0,VALID,86.4495,VALID,398.499,VALID,22.3525,VALID,140,VALID,1.08477,
2014-03-22, 08:40:04,VALID,917.04,VALID,0,VALID,85.954,VALID,401.293,VALID,22.4484,VALID,155,VALID,1.23945,
2014-03-22, 08:41:04,VALID,917.006,VALID,0,VALID,85.2374,VALID,407.739,VALID,22.4874,VALID,165,VALID,1.32617,
2014-03-22, 08:42:04,VALID,917.015,VALID,0,VALID,85.4509,VALID,415.905,VALID,22.6257,VALID,155,VALID,1.51445,
2014-03-22, 08:43:04,VALID,916.955,VALID,0,VALID,83.6899,VALID,420.202,VALID,22.624,VALID,182,VALID,2.01523,
2014-03-22, 08:44:04,VALID,916.974,VALID,0,VALID,83.9414,VALID,422.459,VALID,22.7021,VALID,165,VALID,1.6625,
2014-03-22, 08:45:04,VALID,916.984,VALID,0,VALID,84.5666,VALID,429.872,VALID,22.8387,VALID,177,VALID,1.27305,
2014-03-22, 08:46:04,VALID,917.006,VALID,0,VALID,84.9249,VALID,432.451,VALID,22.9948,VALID,177,VALID,0.621094,
2014-03-22, 08:47:04,VALID,917.021,VALID,0,VALID,83.6746,VALID,433.418,VALID,23.0746,VALID,161,VALID,1.18594,
2014-03-22, 08:48:04,VALID,917.014,VALID,0,VALID,83.1715,VALID,437.93,VALID,22.9948,VALID,185,VALID,0.925,
2014-03-22, 08:49:04,VALID,916.983,VALID,0,VALID,82.9428,VALID,438.252,VALID,23.0338,VALID,148,VALID,1.07109,
2014-03-22, 08:50:04,VALID,917.027,VALID,0,VALID,82.8818,VALID,440.401,VALID,23.1119,VALID,146,VALID,1.32383,
2014-03-22, 08:51:04,VALID,917.027,VALID,0,VALID,81.7993,VALID,448.889,VALID,23.0924,VALID,173,VALID,1.7875,
2014-03-22, 08:52:04,VALID,917.025,VALID,0,VALID,80.5871,VALID,450.931,VALID,23.1314,VALID,160,VALID,1.26172,
2014-03-22, 08:53:04,VALID,916.993,VALID,0,VALID,81.7383,VALID,454.261,VALID,23.2094,VALID,162,VALID,0.377344,
2014-03-22, 08:54:04,VALID,917.042,VALID,0,VALID,82.836,VALID,457.484,VALID,23.4632,VALID,163,VALID,0.536328,
2014-03-22, 08:55:04,VALID,917.048,VALID,0,VALID,80.8387,VALID,460.6,VALID,23.6388,VALID,157,VALID,0.670703,
2014-03-22, 08:56:04,VALID,917.061,VALID,0,VALID,80.0001,VALID,465.113,VALID,23.795,VALID,184,VALID,0.705078,
2014-03-22, 08:57:04,VALID,917.063,VALID,0,VALID,79.3826,VALID,464.576,VALID,23.9725,VALID,178,VALID,0.851563,
2014-03-22, 08:58:04,VALID,917.115,VALID,0,VALID,78.2315,VALID,467.047,VALID,24.0311,VALID,127,VALID,1.21719,
2014-03-22, 08:59:04,VALID,917.093,VALID,0,VALID,78.8871,VALID,469.41,VALID,24.1287,VALID,170,VALID,1.13555,
2014-03-22, 09:00:04,VALID,917.13,VALID,0,VALID,77.8351,VALID,472.526,VALID,24.1873,VALID,146,VALID,0.533984,
2014-03-22, 09:01:04,VALID,917.158,VALID,0,VALID,77.4463,VALID,473.278,VALID,24.0896,VALID,174,VALID,1.43672,
2014-03-22, 09:02:04,VALID,917.18,VALID,0,VALID,77.9799,VALID,478.543,VALID,24.0878,VALID,182,VALID,1.01055,
2014-03-22, 09:03:04,VALID,917.184,VALID,0,VALID,76.2265,VALID,487.675,VALID,24.1464,VALID,176,VALID,0.713672,
2014-03-22, 09:04:04,VALID,917.191,VALID,0,VALID,75.7539,VALID,485.741,VALID,24.3026,VALID,169,VALID,0.134375,
2014-03-22, 09:05:04,VALID,917.197,VALID,0,VALID,75.7234,VALID,491.113,VALID,24.6345,VALID,169,VALID,0.120312,
2014-03-22, 09:06:04,VALID,917.213,VALID,0,VALID,75.1288,VALID,490.469,VALID,24.9274,VALID,133,VALID,0.301172,
2014-03-22, 09:07:04,VALID,917.196,VALID,0,VALID,73.0247,VALID,485.097,VALID,25.0855,VALID,181,VALID,0.904297,
2014-03-22, 09:08:04,VALID,917.23,VALID,0,VALID,73.787,VALID,498.312,VALID,25.025,VALID,184,VALID,1.34023,
2014-03-22, 09:09:04,VALID,917.235,VALID,0,VALID,72.8036,VALID,528.718,VALID,25.0055,VALID,178,VALID,1.30859,
2014-03-22, 09:10:04,VALID,917.23,VALID,0,VALID,72.331,VALID,254.313,VALID,25.0269,VALID,190,VALID,0.265234,
2014-03-22, 09:11:04,VALID,917.255,VALID,0,VALID,72.5825,VALID,518.833,VALID,24.9859,VALID,190,VALID,0.108984,
2014-03-22, 09:12:04,VALID,917.228,VALID,0,VALID,72.0565,VALID,523.023,VALID,25.1422,VALID,190,VALID,0.34375,
2014-03-22, 09:13:04,VALID,917.209,VALID,0,VALID,73.3068,VALID,528.181,VALID,25.2398,VALID,149,VALID,0.539844,
2014-03-22, 09:14:04,VALID,917.208,VALID,0,VALID,71.6601,VALID,529.792,VALID,25.4156,VALID,180,VALID,0.0457031,
2014-03-22, 09:15:04,VALID,917.242,VALID,0,VALID,72.2014,VALID,533.66,VALID,25.4741,VALID,74,VALID,1.25273,
2014-03-22, 09:16:04,VALID,917.229,VALID,0,VALID,71.8659,VALID,532.156,VALID,25.5132,VALID,82,VALID,0.526563,
2014-03-22, 09:17:04,VALID,917.249,VALID,0,VALID,72.3767,VALID,544.512,VALID,25.4741,VALID,101,VALID,0.560156,
2014-03-22, 09:18:04,VALID,917.234,VALID,0,VALID,72.857,VALID,549.024,VALID,25.5718,VALID,109,VALID,0.913672,
2014-03-22, 09:19:04,VALID,917.239,VALID,0,VALID,72.9485,VALID,552.247,VALID,25.5327,VALID,141,VALID,1.1375,
2014-03-22, 09:20:04,VALID,917.21,VALID,0,VALID,72.3767,VALID,548.165,VALID,25.2398,VALID,120,VALID,1.88711,
2014-03-22, 09:21:04,VALID,917.258,VALID,0,VALID,75.4489,VALID,566.43,VALID,24.9274,VALID,105,VALID,1.60742,
2014-03-22, 09:22:04,VALID,917.243,VALID,0,VALID,74.557,VALID,571.157,VALID,24.8492,VALID,149,VALID,1.2625,
2014-03-22, 09:23:04,VALID,917.274,VALID,0,VALID,73.8328,VALID,579.215,VALID,25.0055,VALID,117,VALID,1.0375,
2014-03-22, 09:24:04,VALID,917.259,VALID,0,VALID,74.4884,VALID,592.86,VALID,25.0445,VALID,123,VALID,1.53594,
2014-03-22, 09:25:04,VALID,917.265,VALID,0,VALID,74.3664,VALID,602.96,VALID,24.945,VALID,130,VALID,1.51641,
2014-03-22, 09:26:04,VALID,917.209,VALID,0,VALID,74.8924,VALID,606.72,VALID,24.9645,VALID,118,VALID,0.828906,
2014-03-22, 09:27:04,VALID,917.238,VALID,0,VALID,72.5368,VALID,617.464,VALID,25.1012,VALID,151,VALID,0.572656,
2014-03-22, 09:28:04,VALID,917.206,VALID,0,VALID,73.909,VALID,625.737,VALID,25.2574,VALID,151,VALID,0.135547,
2014-03-22, 09:29:04,VALID,917.198,VALID,0,VALID,70.9206,VALID,635.729,VALID,25.4136,VALID,175,VALID,0.194141,
2014-03-22, 09:30:04,VALID,917.187,VALID,0,VALID,71.378,VALID,640.457,VALID,25.648,VALID,174,VALID,0.237891,
2014-03-22, 09:31:04,VALID,917.178,VALID,0,VALID,71.9346,VALID,660.548,VALID,25.8823,VALID,73,VALID,1.19453,
2014-03-22, 09:32:04,VALID,917.193,VALID,0,VALID,69.2892,VALID,697.401,VALID,25.9058,VALID,96,VALID,1.11875,
2014-03-22, 09:33:04,VALID,917.195,VALID,0,VALID,70.0211,VALID,635.622,VALID,25.7085,VALID,91,VALID,1.32305,
2014-03-22, 09:34:04,VALID,917.201,VALID,0,VALID,69.5789,VALID,380.986,VALID,25.396,VALID,103,VALID,0.702344,
2014-03-22, 09:35:04,VALID,917.215,VALID,0,VALID,71.6372,VALID,298.579,VALID,25.3179,VALID,103,VALID,0.503125,
2014-03-22, 09:36:04,VALID,917.174,VALID,0,VALID,72.1328,VALID,362.829,VALID,25.2203,VALID,103,VALID,1.02773,
2014-03-22, 09:37:04,VALID,917.175,VALID,0,VALID,72.552,VALID,463.609,VALID,25.1226,VALID,103,VALID,0.736328,
2014-03-22, 09:38:04,VALID,917.165,VALID,0,VALID,73.5355,VALID,415.475,VALID,25.1617,VALID,103,VALID,0.0457031,
2014-03-22, 09:39:04,VALID,917.168,VALID,0,VALID,73.787,VALID,756.815,VALID,25.3765,VALID,103,VALID,0.111328,
2014-03-22, 09:40:04,VALID,917.164,VALID,0,VALID,71.9117,VALID,384.962,VALID,25.6499,VALID,103,VALID,1.05117,
2014-03-22, 09:41:04,VALID,917.157,VALID,0,VALID,69.739,VALID,430.624,VALID,25.7866,VALID,103,VALID,0.672656,
2014-03-22, 09:42:04,VALID,917.191,VALID,0,VALID,70.6843,VALID,487.246,VALID,25.8843,VALID,103,VALID,0.342969,
2014-03-22, 09:43:04,VALID,917.15,VALID,0,VALID,68.3973,VALID,516.899,VALID,25.9253,VALID,187,VALID,1.25156,
2014-03-22, 09:44:04,VALID,917.152,VALID,0,VALID,68.0085,VALID,491.113,VALID,25.8257,VALID,203,VALID,0.836328,
2014-03-22, 09:45:04,VALID,917.147,VALID,0,VALID,69.1444,VALID,321.034,VALID,25.7085,VALID,203,VALID,0.308203,
2014-03-22, 09:46:04,VALID,917.16,VALID,0,VALID,69.4493,VALID,331.778,VALID,25.6499,VALID,112,VALID,1.25742,
2014-03-22, 09:47:04,VALID,917.149,VALID,0,VALID,72.9866,VALID,331.993,VALID,25.4741,VALID,137,VALID,1.18867,
2014-03-22, 09:48:04,VALID,917.129,VALID,0,VALID,70.4404,VALID,338.762,VALID,25.2203,VALID,110,VALID,1.32852,
2014-03-22, 09:49:04,VALID,917.124,VALID,0,VALID,71.9193,VALID,373.465,VALID,25.1226,VALID,107,VALID,0.635547,
2014-03-22, 09:50:04,VALID,917.134,VALID,0,VALID,73.4135,VALID,370.887,VALID,25.2007,VALID,66,VALID,1.36953,
2014-03-22, 09:51:04,VALID,917.141,VALID,0,VALID,72.4148,VALID,361.969,VALID,25.2593,VALID,66,VALID,1.14063,
2014-03-22, 09:52:04,VALID,917.142,VALID,0,VALID,72.6359,VALID,521.09,VALID,25.2984,VALID,66,VALID,1.04375,
2014-03-22, 09:53:04,VALID,917.155,VALID,0,VALID,71.6906,VALID,826.115,VALID,25.4546,VALID,97,VALID,1.08594,
2014-03-22, 09:54:04,VALID,917.149,VALID,0,VALID,71.4771,VALID,821.602,VALID,25.728,VALID,97,VALID,0.438672,
2014-03-22, 09:55:04,VALID,917.113,VALID,0,VALID,71.5153,VALID,830.198,VALID,26.1187,VALID,93,VALID,0.569531,
2014-03-22, 09:56:04,VALID,917.09,VALID,0,VALID,67.2004,VALID,842.768,VALID,26.275,VALID,94,VALID,1.21602,
2014-03-22, 09:57:04,VALID,917.116,VALID,0,VALID,70.1659,VALID,844.702,VALID,26.314,VALID,67,VALID,1.27461,
2014-03-22, 09:58:04,VALID,917.114,VALID,0,VALID,69.8,VALID,855.124,VALID,26.5875,VALID,56,VALID,1.50195,
2014-03-22, 09:59:04,VALID,917.11,VALID,0,VALID,65.2717,VALID,871.133,VALID,26.7243,VALID,56,VALID,0.660547,
2014-03-22, 10:00:04,VALID,917.118,VALID,0,VALID,66.6744,VALID,899.39,VALID,26.7829,VALID,56,VALID,0.198437,
2014-03-22, 10:01:04,VALID,917.088,VALID,0,VALID,66.7506,VALID,897.241,VALID,27.0194,VALID,79,VALID,0.770312,
2014-03-22, 10:02:04,VALID,917.091,VALID,0,VALID,68.2906,VALID,496.593,VALID,26.9587,VALID,234,VALID,1.15781,
2014-03-22, 10:03:04,VALID,917.082,VALID,0,VALID,67.9475,VALID,412.467,VALID,26.8004,VALID,222,VALID,1.23008,
2014-03-22, 10:04:04,VALID,917.082,VALID,0,VALID,68.3287,VALID,396.243,VALID,26.5074,VALID,240,VALID,0.537109,
2014-03-22, 10:05:04,VALID,917.052,VALID,0,VALID,70.8215,VALID,302.877,VALID,26.3726,VALID,240,VALID,0.373437,
2014-03-22, 10:06:04,VALID,917.064,VALID,0,VALID,69.6856,VALID,299.653,VALID,26.2925,VALID,207,VALID,1.27695,
2014-03-22, 10:07:04,VALID,917.041,VALID,0,VALID,70.2498,VALID,289.446,VALID,26.1753,VALID,224,VALID,0.271094,
2014-03-22, 10:08:04,VALID,916.996,VALID,0,VALID,70.2422,VALID,302.125,VALID,26.0386,VALID,224,VALID,0.675781,
2014-03-22, 10:09:04,VALID,916.995,VALID,0,VALID,70.7072,VALID,536.454,VALID,25.7866,VALID,224,VALID,0.8625,
2014-03-22, 10:10:04,VALID,917.008,VALID,0,VALID,71.3475,VALID,468.121,VALID,25.5894,VALID,224,VALID,0.975391,
2014-03-22, 10:11:04,VALID,917.005,VALID,0,VALID,70.8749,VALID,675.59,VALID,25.4917,VALID,224,VALID,0.669141,
2014-03-22, 10:12:04,VALID,916.978,VALID,0,VALID,72.0794,VALID,742.311,VALID,25.4331,VALID,224,VALID,1.1707,
2014-03-22, 10:13:04,VALID,916.988,VALID,0,VALID,71.8354,VALID,823.322,VALID,25.2769,VALID,224,VALID,0.904297,
2014-03-22, 10:14:04,VALID,916.996,VALID,0,VALID,72.8036,VALID,741.344,VALID,25.3355,VALID,224,VALID,0.476172,
2014-03-22, 10:15:04,VALID,917.01,VALID,0,VALID,71.7211,VALID,487.461,VALID,25.4331,VALID,224,VALID,1.1707,
2014-03-22, 10:16:04,VALID,916.997,VALID,0,VALID,73.2305,VALID,416.012,VALID,25.396,VALID,224,VALID,1.01563,
2014-03-22, 10:17:04,VALID,917.001,VALID,0,VALID,72.8265,VALID,589.422,VALID,25.4741,VALID,224,VALID,0.692578,
2014-03-22, 10:18:04,VALID,917.012,VALID,0,VALID,72.6359,VALID,387.218,VALID,25.5503,VALID,224,VALID,0.557422,
2014-03-22, 10:19:04,VALID,916.975,VALID,0,VALID,73.1619,VALID,323.076,VALID,25.6284,VALID,224,VALID,0.644922,
2014-03-22, 10:20:04,VALID,916.991,VALID,0,VALID,70.2117,VALID,292.992,VALID,25.5132,VALID,244,VALID,1.89336,
2014-03-22, 10:21:04,VALID,916.97,VALID,0,VALID,72.1937,VALID,362.829,VALID,25.357,VALID,241,VALID,1.33008,
2014-03-22, 10:22:04,VALID,916.977,VALID,0,VALID,72.0413,VALID,259.148,VALID,25.3355,VALID,231,VALID,0.605078,
2014-03-22, 10:23:04,VALID,916.978,VALID,0,VALID,71.8736,VALID,235.404,VALID,25.355,VALID,233,VALID,0.766406,
2014-03-22, 10:24:04,VALID,916.987,VALID,0,VALID,71.7516,VALID,249.371,VALID,25.3531,VALID,228,VALID,0.565234,
2014-03-22, 10:25:04,VALID,917.003,VALID,0,VALID,70.7377,VALID,245.288,VALID,25.3746,VALID,221,VALID,0.994922,
2014-03-22, 10:26:04,VALID,916.98,VALID,0,VALID,70.0973,VALID,294.389,VALID,25.3746,VALID,221,VALID,0.550391,
2014-03-22, 10:27:04,VALID,916.967,VALID,0,VALID,71.2561,VALID,253.131,VALID,25.3941,VALID,221,VALID,0.995313,
2014-03-22, 10:28:04,VALID,916.968,VALID,0,VALID,72.1785,VALID,259.47,VALID,25.4136,VALID,202,VALID,0.989453,
2014-03-22, 10:29:04,VALID,916.957,VALID,0,VALID,72.8646,VALID,259.255,VALID,25.4722,VALID,201,VALID,0.578906,
2014-03-22, 10:30:04,VALID,916.932,VALID,0,VALID,71.4619,VALID,313.298,VALID,25.4527,VALID,217,VALID,1.625,
2014-03-22, 10:31:04,VALID,916.916,VALID,0,VALID,72.0108,VALID,813.222,VALID,25.3941,VALID,217,VALID,1.13828,
2014-03-22, 10:32:04,VALID,916.867,VALID,0,VALID,72.7731,VALID,840.405,VALID,25.5308,VALID,206,VALID,0.639063,
2014-03-22, 10:33:04,VALID,916.857,VALID,0,VALID,73.4059,VALID,880.695,VALID,25.8042,VALID,208,VALID,0.672656,
2014-03-22, 10:34:04,VALID,916.84,VALID,0,VALID,71.1875,VALID,908.737,VALID,26.0386,VALID,242,VALID,0.429688,
2014-03-22, 10:35:04,VALID,916.789,VALID,0,VALID,69.4722,VALID,901.861,VALID,26.312,VALID,226,VALID,0.539844,
2014-03-22, 10:36:04,VALID,916.784,VALID,0,VALID,67.7036,VALID,880.05,VALID,26.5269,VALID,241,VALID,1.44961,
2014-03-22, 10:37:04,VALID,916.728,VALID,0,VALID,66.7659,VALID,866.943,VALID,26.6441,VALID,228,VALID,1.13867,
2014-03-22, 10:38:04,VALID,916.736,VALID,0,VALID,68.7556,VALID,865.868,VALID,26.7398,VALID,233,VALID,1.32266,
2014-03-22, 10:39:04,VALID,916.704,VALID,0,VALID,64.7152,VALID,864.686,VALID,26.7809,VALID,233,VALID,0.800781,
2014-03-22, 10:40:04,VALID,916.666,VALID,0,VALID,65.4623,VALID,853.942,VALID,26.9176,VALID,243,VALID,0.600391,